Location: Balsareny
(41.8670°N, 1.8830°E)
Time: 06:22:04
(UTC+02:00)

ACS3 Solar Sail - Visible Passes

Search period start: 20 May 2026 00:00
Search period end: 30 May 2026 00:00
Orbit: 902 x 937 km, 97.2° (Epoch: 19 May)

Date Brightness Start Highest point End Pass type
(mag) Time Alt. Az. Time Alt. Az. Time Alt. Az.
20 May 2.0 02:12:27 10° NNE 02:18:13 52° E 02:18:37 51° ESE visible
20 May 3.1 03:55:31 10° NNW 04:00:09 25° WNW 04:02:05 21° W visible
21 May 1.8 02:20:45 10° NNE 02:26:36 62° E 02:27:08 60° SE visible
21 May 3.3 04:04:08 10° NNW 04:08:24 21° WNW 04:10:36 17° W visible
22 May 1.6 02:29:03 10° NNE 02:34:59 74° E 02:35:38 67° SSE visible
22 May 3.5 04:12:50 10° NNW 04:16:37 18° WNW 04:19:06 14° W visible
23 May 3.8 00:58:05 10° ENE 01:00:14 12° E 01:00:40 12° E visible
23 May 1.5 02:37:23 10° NNE 02:43:20 87° ESE 02:44:07 69° S visible
23 May 3.6 04:21:36 10° NNW 04:24:50 15° WNW 04:27:35 11° W visible
24 May 3.6 01:05:32 10° NE 01:08:43 15° E 01:09:09 15° E visible
24 May 1.6 02:45:43 10° N 02:51:40 80° WNW 02:52:37 64° SW visible
24 May 3.8 04:30:35 10° NNW 04:33:01 13° WNW 04:35:27 10° W visible
25 May 3.4 01:13:18 10° NE 01:17:12 18° E 01:17:39 18° E visible
25 May 1.7 02:54:07 10° N 03:00:00 68° WNW 03:01:07 55° SW visible
25 May 3.9 04:40:04 10° NW 04:41:12 11° WNW 04:42:19 10° WNW visible
26 May 3.2 01:21:13 10° NE 01:25:39 21° E 01:26:08 21° E visible
26 May 2.0 03:02:30 10° N 03:08:19 57° WNW 03:09:36 47° WSW visible
27 May 3.0 01:29:15 10° NE 01:34:05 25° E 01:34:37 25° E visible
27 May 2.2 03:10:56 10° N 03:16:36 48° WNW 03:18:05 40° WSW visible
28 May 2.8 01:37:21 10° NNE 01:42:31 30° E 01:43:06 30° ESE visible
28 May 2.4 03:19:23 10° N 03:24:53 41° WNW 03:26:34 34° WSW visible
29 May 2.5 01:45:29 10° NNE 01:50:56 36° E 01:51:34 35° ESE visible
29 May 2.7 03:27:52 10° N 03:33:09 35° WNW 03:35:02 28° WSW visible
